User: anonymous   Login
Location: Deuil
(48.9767°N, 2.3272°E)
Time: 15:56:02
(UTC+00:00)
Language:

SL-08 RB Rocket - Orbit

View from above orbital plane
View from above orbital plane
View from above satellite
View from above satellite

Ground track
Ground track

The orbit data is extracted from the following two-line orbital elements,

1 26387U 00033D   22022.07589424  .00000374  00000-0  71666-4 0  9993
2 26387  97.7559  46.7436 0026829  21.4265  40.3766 14.68846001154427
Epoch (UTC): 22 January 2022 01:49:17
Eccentricity: 0.0026829
inclination: 97.7559°
perigee height: 646 km
apogee height: 683 km
right ascension of ascending node: 46.7436°
argument of perigee: 21.4265°
revolutions per day: 14.68846001
mean anomaly at epoch: 40.3766°
orbit number at epoch: 15442

The dashed part of the orbit path shows where the satellite is in the earth's shadow,  

DLR